Location: Unspecified
(54.1780°N, 0.0000°E)
Time: 09:35:27
(UTC+00:00)

Transit 2A - Pass Details

Date: 24 June 2019
Orbit: 594 x 965 km, 66.7° (Epoch: 17 July)

Event Time Altitude Azimuth Distance (km) Brightness Sun altitude
Rises 01:00:05 0° 226° (SW) 3,642 - -11.4°
Exits shadow 01:02:18 - 228° (SW) 2,837 8.4 -11.3°
Reaches altitude 10° 01:02:40 10° 228° (SW) 2,700 8.3 -11.3°
Maximum altitude 01:09:03 75° 314° (NW) 985 6.6 -11.1°
Drops below altitude 10° 01:15:12 10° 40° (NE) 2,598 9.9 -10.8°
Sets 01:17:39 0° 43° (NE) 3,497 10.7 -10.7°
